Flag for Venezuela Weather past 2 weeks in Barquisimeto, Venezuela

Now
73 °F

Thunderstorms. Passing clouds.


Feels Like: 73 °F
Forecast: 69 / 90 °F
Wind: 12 mph from Southeast

Location: Barquisimeto Airport

Current Time: May 24, 2015 at 3:11:22 AM

Latest Report: May 24, 2015 at 1:30 AM


Visibility: 4 mi

Pressure: 30.04 "Hg

Humidity: 83%

Dew point: 68 °F

Location of BarquisimetoLocation

Historic Weather in Barquisimeto — Graph

°F

Barquisimeto temperature yesterday

Maximum temperature yesterday: 91 °F (at 4:30 PM)
Minimum temperature yesterday: 72 °F (at 4:30 AM)
Average temperature yesterday: 80 °F

Past Weeks' High & Low Weather Summary

 TemperatureHumidityPressure
High93 °F (May 21, 3:30 PM)94% (May 10, 5:30 AM)30.09 "Hg (May 10, 5:30 AM)
Low68 °F (May 10, 5:30 AM)26% (May 9, 3:30 PM)29.89 "Hg (May 13, 4:30 PM)
Average80 °F65%30.01 "Hg
* Reported May 9 1:30 AM — May 24 1:30 AM, Barquisimeto, Weather by CustomWeather, © 2015

Note: Actual official high and low records may vary slightly from our data, if they occured in-between our weather recording intervals... More about our weather records

Advertising

Barquisimeto weather history for previous 24 hours

 ConditionsComfort  
Time TempWeatherWind HumidityBarometerVisibility
1:30 AM
Sun, May 24
73 °FThunderstorms. Passing clouds.12 mph83%30.04 "Hg4 mi
10:30 PM
Sat, May 23
73 °FPassing clouds.9 mph83%30.07 "HgN/A
9:30 PM75 °FPassing clouds.10 mph78%30.04 "HgN/A
8:30 PM75 °FPassing clouds.9 mph78%30.01 "HgN/A
7:30 PM79 °FPassing clouds.12 mph70%29.98 "HgN/A
6:30 PM84 °FPassing clouds.13 mph51%29.98 "HgN/A
5:30 PM90 °FPartly sunny.15 mph41%29.98 "HgN/A
4:30 PM91 °FPartly sunny.12 mph38%29.98 "HgN/A
3:30 PM90 °FBroken clouds.13 mph43%29.98 "HgN/A
2:30 PM90 °FBroken clouds.14 mph43%30.01 "HgN/A
1:30 PM88 °FBroken clouds.15 mph46%30.04 "HgN/A
12:30 PM86 °FScattered clouds.14 mph49%30.07 "HgN/A
11:30 AM84 °FScattered clouds.14 mph51%30.09 "HgN/A
10:30 AM79 °FPartly sunny.12 mph65%30.09 "HgN/A
9:30 AM77 °FPartly sunny.12 mph69%30.09 "HgN/A
8:30 AM73 °FOvercast.6 mph83%30.07 "HgN/A
7:30 AM73 °FPartly sunny.7 mph83%30.07 "HgN/A
6:30 AM72 °FPartly sunny.3 mph83%30.04 "HgN/A
5:30 AM72 °FPartly sunny.7 mph83%30.04 "HgN/A
4:30 AM72 °FOvercast.8 mph88%30.07 "HgN/A
Weather by CustomWeather, © 2015

See weather overviewHow to use our weather pages